Location: Ku?niki
(51.4449°N, 17.8974°E)
Time: 20:17:26
(UTC+00:00)

DX 1 - Pass Details

Date: 25 June 2022
Orbit: 617 x 629 km, 98.4° (Epoch: 08 August)

Event Time Altitude Azimuth Distance (km) Brightness Sun altitude
Rises 20:44:10 0° 10° (N) 2,935 ? -10.2°
Reaches altitude 10° 20:46:26 10° 5° (N) 2,023 ? -10.3°
Maximum altitude 20:50:38 47° 292° (WNW) 842 ? -10.6°
Drops below altitude 10° 20:54:49 10° 219° (SW) 2,005 ? -10.9°
Sets 20:57:03 0° 214° (SSW) 2,906 ? -11.1°
